Shreveport, LA

1:53 AM CST on January 17, 2018 (GMT -0600)
Shreveport Regional

Weather History for KSHV - November, 2013

Change the Weather History Date:

Tuesday, November 5, 2013

  Actual Average Record
Temperature  
Mean Temperature 68 °F 60 °F  
Max Temperature 74 °F 72 °F 86 °F (2017)
Min Temperature 61 °F 49 °F 24 °F (1991)
Degree Days  
Heating Degree Days 0 6  
Month to date heating degree days 29 29  
Since 1 July heating degree days 67 115  
Cooling Degree Days 3 1  
Month to date cooling degree days 3 9  
Year to date cooling degree days 2695 2458  
Growing Degree Days 17 (Base 50)    
Moisture  
Dew Point 61 °F    
Average Humidity 76    
Maximum Humidity 84    
Minimum Humidity 68    
Precipitation  
Precipitation T in 0.16 in 1.85 in (1879)
Month to date precipitation T 0.81  
Year to date precipitation 43.29 42.92  
Snow  
Snow 0.00 in - - ()
Month to date snowfall 0.0  
Since 1 July snowfall 0.0  
Since 1 September snowfall 0.0  
Snow Depth 0.00 in    
Sea Level Pressure  
Sea Level Pressure 30.06 in    
Wind  
Wind Speed 9 mph (SE)    
Max Wind Speed 18 mph    
Max Gust Speed 26 mph    
Visibility 10 miles    
Events Rain    
T = Trace of Precipitation, MM = Missing Value Source: NWS Daily Summary

Daily Weather History Graph

Daily Weather History Graph

Search for Another Location

Airport or City:

Trip Planner

Search our weather history database for the weather conditions in past years. The results will help you decide how hot, cold, wet, or windy it might be!

Date:

Astronomy

Nov. 05, 2013 Rise Set
Actual Time 6:36 AM CST 5:21 PM CST
Civil Twilight 6:10 AM CST 5:46 PM CST
Nautical Twilight 5:41 AM CST 6:15 PM CST
Astronomical Twilight 5:12 AM CST 6:44 PM CST
Moon 8:47 AM CST (11/5) 7:28 PM CST (11/5)
Length of Visible Light 11h 36m
Length of Day
10h 44m
Waxing Crescent, 7% of the Moon is Illuminated
Nov 5
Waxing Crescent
Nov 9
First Quarter
Nov 17
Full
Nov 25
Last Quarter
Dec 2
New

Hourly Weather History & Observations

Time (CST) Temp. Dew Point Humidity Pressure Visibility Wind Dir Wind Speed Gust Speed Precip Events Conditions
12:56 AM 63.0 °F 55.9 °F 78% 30.11 in 10.0 mi ESE 9.2 mph - 0.00 in Rain Light Rain
1:56 AM 63.0 °F 55.9 °F 78% 30.10 in 10.0 mi SE 8.1 mph - 0.00 in   Overcast
2:56 AM 62.1 °F 55.9 °F 80% 30.10 in 10.0 mi SE 4.6 mph - N/A   Overcast
3:56 AM 62.1 °F 57.0 °F 84% 30.09 in 10.0 mi SE 5.8 mph - N/A   Overcast
4:56 AM 62.1 °F 57.0 °F 84% 30.09 in 10.0 mi ESE 5.8 mph - N/A   Overcast
5:56 AM 61.0 °F 55.9 °F 83% 30.09 in 10.0 mi ESE 5.8 mph - N/A   Overcast
6:56 AM 61.0 °F 55.9 °F 83% 30.10 in 10.0 mi North - - N/A   Overcast
7:56 AM 61.0 °F 55.9 °F 83% 30.12 in 10.0 mi SE 6.9 mph - N/A   Overcast
8:56 AM 63.0 °F 55.9 °F 78% 30.13 in 10.0 mi SE 11.5 mph - N/A   Overcast
9:56 AM 66.0 °F 57.9 °F 75% 30.12 in 10.0 mi SE 10.4 mph - N/A   Overcast
10:56 AM 68.0 °F 60.1 °F 76% 30.12 in 10.0 mi SE 9.2 mph - N/A   Overcast
11:56 AM 70.0 °F 61.0 °F 73% 30.09 in 10.0 mi SE 10.4 mph - N/A   Overcast
12:56 PM 71.1 °F 62.1 °F 73% 30.06 in 10.0 mi SE 10.4 mph - N/A   Overcast
1:56 PM 73.0 °F 63.0 °F 71% 30.04 in 10.0 mi SE 5.8 mph - N/A   Overcast
2:56 PM 73.0 °F 63.0 °F 71% 30.02 in 10.0 mi SE 8.1 mph - N/A   Overcast
3:56 PM 73.0 °F 64.0 °F 73% 30.02 in 10.0 mi SE 5.8 mph - N/A   Overcast
4:56 PM 73.0 °F 64.0 °F 73% 30.01 in 10.0 mi SE 5.8 mph - N/A   Overcast
5:56 PM 72.0 °F 64.9 °F 78% 30.01 in 10.0 mi SE 8.1 mph - N/A   Overcast
6:56 PM 72.0 °F 64.9 °F 78% 30.02 in 10.0 mi SE 10.4 mph - N/A   Overcast
7:56 PM 71.1 °F 64.0 °F 78% 30.03 in 10.0 mi SSE 11.5 mph - N/A   Overcast
8:24 PM 71.6 °F 64.4 °F 78% 30.04 in 10.0 mi SSE 8.1 mph - N/A   Overcast
8:56 PM 69.1 °F 64.9 °F 87% 30.04 in 9.0 mi SSE 10.4 mph - 0.00 in   Overcast
9:19 PM 69.8 °F 64.4 °F 83% 30.04 in 7.0 mi SE 11.5 mph - 0.00 in   Overcast
9:56 PM 70.0 °F 64.0 °F 81% 30.04 in 10.0 mi SSE 11.5 mph - 0.00 in   Overcast
10:37 PM 69.8 °F 64.4 °F 83% 30.04 in 10.0 mi SSE 16.1 mph 21.9 mph N/A   Overcast
10:56 PM 69.1 °F 64.0 °F 84% 30.04 in 10.0 mi SSE 13.8 mph 21.9 mph N/A   Overcast
11:08 PM 69.8 °F 64.4 °F 83% 30.05 in 10.0 mi SSE 12.7 mph - N/A   Overcast
11:41 PM 69.8 °F 64.4 °F 83% 30.04 in 10.0 mi SSE 11.5 mph - N/A   Overcast
11:56 PM 68.0 °F 63.0 °F 84% 30.04 in 10.0 mi SSE 13.8 mph - N/A   Overcast